RH
45 40 76 97 93 94 82 77 78 69 69 69 66 66 61 66 62 57 46 36 33 30 27 25 29 28 95 96 86 99 97 100 100 100 98 93 100 94 91 78 72 51 51 40
67 42 30 55 96 90 93 95 82 72 70 76 73 69 64 62 57 52 41 42 39 34 31 28 25 26 86 76 89 97 99 100 99 100 99 96 99 99 93 86 64 54 48 49
70 57 37 47 79 100 90 92 90 86 82 82 77 74 64 51 50 41 32 42 45 40 34 27 27 31 43 80 97 94 97 99 100 100 99 98 96 99 93 100 77 66 56 51
91 66 60 49 61 87 98 84 93 90 92 91 85 82 61 46 39 35 40 37 39 47 43 37 25 30 34 81 78 100 99 97 99 100 99 100 99 100 96 100 99 86 78 64
86 87 78 64 61 66 60 76 75 84 95 95 91 96 63 34 23 22 31 40 41 40 45 42 38 30 30 47 78 100 99 100 100 99 99 99 98 99 100 100 100 100 85 66
94 99 94 83 88 89 94 97 95 99 99 96 83 98 69 66 36 25 18 21 29 40 41 44 43 39 34 36 54 75 99 97 99 100 98 99 99 98 100 99 100 100 94 69
82 82 85 94 99 98 98 98 96 97 96 88 61 92 76 49 35 22 21 18 20 28 34 36 38 38 34 30 37 52 100 100 98 100 99 98 99 100 100 94 100 100 95 79
97 84 65 60 75 74 87 87 86 88 93 75 62 87 58 40 40 36 33 28 26 28 32 36 38 41 40 40 39 50 97 100 99 100 98 99 100 99 99 100 100 100 99 78
92 98 70 80 75 85 98 98 79 95 84 91 72 67 50 51 49 44 43 38 35 36 34 31 32 38 43 42 45 49 69 100 100 100 100 100 99 99 100 100 100 100 97 71
95 99 82 84 96 94 99 89 98 98 95 92 94 79 56 42 43 43 45 40 42 40 38 33 37 42 47 46 50 57 61 99 99 93 90 99 100 99 98 99 99 100 94 63
83 95 84 79 79 67 88 98 98 98 96 94 94 92 65 61 58 53 48 44 38 35 39 39 41 43 47 50 52 60 70 94 100 100 97 98 99 100 98 99 99 98 89 68
73 94 87 73 45 50 61 74 68 85 93 97 96 82 67 82 67 61 54 52 49 45 47 45 42 47 47 52 53 58 72 100 100 100 99 96 99 98 99 99 99 97 82 79
92 92 93 73 79 90 97 98 97 96 97 93 95 80 91 96 88 79 63 54 52 49 48 50 49 51 51 52 55 63 77 100 100 100 100 100 98 99 97 99 96 97 94 94
94 83 80 84 57 46 46 51 40 67 80 82 89 77 51 47 68 87 92 76 62 52 51 50 51 53 55 56 57 67 80 100 100 100 100 99 98 99 99 97 97 98 99 100
87 90 66 53 57 51 38 19 18 38 36 87 39 16 12 10 8 22 60 72 71 68 52 51 51 55 61 62 64 67 77 100 100 99 98 97 97 97 97 97 96 98 99 100
61 58 53 58 27 35 52 39 33 24 34 25 19 16 14 9 5 6 22 57 52 58 74 60 52 56 65 70 70 76 88 100 100 100 98 97 96 96 96 96 98 96 96 98
34 49 71 86 66 70 82 51 30 25 21 22 23 21 17 14 9 6 14 70 56 46 58 87 82 77 76 79 83 87 95 100 100 100 98 97 96 96 96 96 98 100 98 97
31 33 74 86 74 97 46 38 37 36 29 22 24 23 23 21 18 16 26 68 96 75 76 92 95 97 93 96 97 94 98 100 100 100 99 97 97 97 97 99 98 97 96 84
29 46 94 80 64 54 46 30 30 26 23 20 19 23 32 60 78 81 60 65 79 99 93 93 97 96 97 97 96 96 100 100 100 99 98 98 98 98 99 99 97 95 87 89
46 47 100 98 100 99 54 48 44 44 53 38 33 44 40 30 31 25 20 23 61 90 99 100 96 97 96 96 96 96 97 100 100 97 98 98 97 97 97 96 94 95 96 96
43 54 88 97 99 90 78 94 91 98 73 85 98 92 86 92 87 78 65 43 62 90 94 98 97 96 96 96 96 96 96 96 96 98 98 97 96 95 95 96 97 96 96 96
97 94 99 92 100 96 95 90 97 89 92 96 93 94 83 69 72 69 82 86 90 84 95 97 99 96 96 96 96 96 96 96 96 97 96 96 96 96 96 96 96 96 96 96
89 88 98 99 84 82 89 85 94 80 80 74 63 55 57 62 68 68 67 81 97 92 96 97 97 96 96 97 96 96 96 96 96 96 96 96 96 97 96 96 96 96 96 94
84 84 95 82 60 60 67 68 66 56 82 82 73 64 53 64 70 72 77 87 96 96 96 99 97 97 96 96 97 96 96 97 98 98 97 97 97 97 96 97 96 96 91 33
85 90 81 82 69 82 86 90 91 99 86 76 66 60 59 65 76 84 90 96 96 96 97 98 98 98 97 98 98 97 98 97 98 98 97 97 97 97 97 96 85 26 4 4
72 86 97 99 93 94 88 88 93 97 96 76 57 55 60 70 89 93 98 97 96 98 98 98 99 99 98 98 99 99 98 97 98 98 98 97 97 96 61 10 4 4 3 2
Wind_Speed
26 32 37 31 31 24 20 24 22 26 21 23 23 25 26 25 27 25 25 26 26 27 29 30 31 33 39 37 35 45 36 36 35 33 29 23 27 22 16 18 17 16 13 13
25 36 33 30 27 27 26 26 28 27 25 24 25 29 27 30 31 29 26 27 26 26 29 29 29 31 39 39 35 38 32 38 33 40 29 26 29 23 22 19 18 16 14 12
28 23 30 33 32 28 31 31 29 26 21 20 23 32 32 35 34 32 31 29 29 30 28 28 28 29 33 34 39 33 37 38 34 42 39 33 26 27 23 23 17 16 15 14
21 27 28 24 38 31 36 36 33 32 30 23 25 17 33 35 34 35 33 34 30 29 27 28 30 31 30 36 39 37 37 35 41 32 37 37 28 27 23 23 24 19 17 15
18 18 23 34 35 32 37 34 35 36 35 30 23 13 39 39 43 42 37 32 30 30 29 26 27 30 32 33 36 36 36 37 39 35 37 39 30 28 26 26 27 26 20 17
25 24 20 22 26 30 27 29 24 26 28 16 34 30 39 40 48 43 36 35 33 30 31 30 29 30 32 32 37 40 38 40 37 43 36 35 36 30 29 28 30 28 23 20
25 30 29 27 27 20 22 24 6 7 9 8 28 27 38 33 25 22 23 33 33 30 32 31 33 32 32 35 36 41 42 38 42 45 35 31 36 32 26 28 31 31 27 23
17 14 21 24 31 31 27 31 14 7 4 5 23 11 30 41 39 41 40 31 23 28 34 34 33 32 32 35 38 40 42 38 39 39 37 34 39 35 30 32 31 33 28 26
11 14 20 21 20 21 19 28 37 28 31 8 10 17 33 35 37 36 32 33 31 33 35 34 33 33 35 36 37 39 41 44 42 39 37 40 41 39 36 33 37 32 28 26
18 20 25 24 20 21 26 20 11 18 5 8 9 16 20 30 21 16 29 26 27 30 34 35 35 35 35 38 38 38 40 40 42 42 39 40 36 35 32 29 26 26 28 27
20 22 17 15 10 15 14 16 15 19 16 3 2 4 11 16 19 24 27 27 24 25 31 30 33 36 34 37 39 39 39 39 41 41 41 40 38 33 32 26 24 29 30 26
22 17 23 27 30 31 28 23 23 14 9 13 13 8 6 7 4 11 22 28 30 32 30 30 30 31 34 34 37 40 39 38 40 39 40 42 41 33 29 31 28 31 29 26
15 9 11 15 10 8 8 7 10 12 10 18 9 8 11 20 11 9 14 18 28 29 31 27 25 28 31 33 34 38 38 37 39 39 39 38 38 40 37 30 29 30 27 25
19 20 23 15 21 29 36 30 30 22 15 21 23 31 29 28 25 26 19 18 24 24 29 31 26 26 28 32 34 34 37 36 38 38 40 39 37 36 35 32 32 30 27 26
20 24 27 31 32 32 34 38 37 30 31 25 33 38 38 36 29 25 31 25 24 26 29 29 27 27 31 32 34 34 34 36 39 41 40 37 35 34 33 32 30 27 27 27
29 33 31 36 38 39 37 35 35 39 36 40 39 44 34 34 30 26 27 28 26 26 27 31 31 32 31 33 33 32 33 37 41 41 39 36 34 32 31 29 28 29 28 28
33 30 26 30 29 29 25 28 28 31 34 34 34 35 30 28 29 29 27 27 28 29 30 26 28 26 30 29 33 31 31 35 38 38 36 34 33 32 32 31 29 27 28 26
36 34 25 19 20 8 23 27 27 30 30 30 32 31 32 34 33 33 31 29 27 24 24 32 29 29 31 33 32 31 32 33 35 36 35 34 33 32 31 29 28 27 25 23
24 26 16 9 17 24 26 26 24 28 34 34 37 35 30 30 29 24 26 31 33 29 26 26 30 35 34 33 35 35 35 34 35 36 36 35 33 31 30 29 27 25 23 24
10 10 15 9 5 5 6 13 19 24 28 29 30 29 31 35 35 34 33 31 33 34 29 25 27 37 38 37 37 36 37 37 36 36 36 35 34 32 31 28 26 22 19 19
15 14 15 20 15 10 14 13 17 11 15 14 16 15 15 17 19 22 24 28 29 27 29 24 25 35 39 42 40 39 39 39 38 39 39 38 36 30 23 19 20 19 18 17
13 11 13 10 9 7 8 18 11 19 20 17 16 19 19 17 17 21 23 21 25 22 26 23 24 34 39 39 37 39 41 40 38 35 33 27 22 21 21 19 18 16 16 15
12 12 17 16 19 27 40 30 26 25 22 22 20 23 25 22 19 16 18 22 21 22 25 23 26 34 36 36 36 38 38 35 30 27 25 23 23 21 19 17 15 15 14 11
24 25 28 30 32 29 29 32 31 32 23 22 24 23 24 24 21 18 17 19 18 19 25 25 30 33 33 32 30 30 27 27 27 26 26 23 21 18 17 16 16 13 9 12
30 31 33 32 25 21 23 22 19 21 23 24 24 25 26 25 21 21 14 15 16 18 21 26 28 28 28 29 30 31 29 30 28 26 24 21 20 19 19 16 10 10 11 11
24 27 28 30 27 28 26 25 24 25 24 23 24 25 26 23 21 20 11 12 14 16 21 25 26 26 28 33 34 34 32 28 25 23 22 22 21 18 12 11 10 9 9 8
Wind_Direction
217 214 213 218 222 231 235 230 243 248 248 251 256 258 254 257 259 257 254 246 249 243 246 246 241 237 225 225 234 224 233 228 223 219 215 230 228 253 244 245 251 240 245 252
222 226 231 228 229 234 240 240 239 248 251 254 258 258 254 253 256 255 253 246 244 243 241 241 243 244 224 226 228 232 232 234 236 215 224 228 232 237 252 256 242 243 243 248
234 248 237 231 233 233 239 240 245 243 252 258 264 267 259 258 258 255 248 242 241 244 242 239 240 242 238 226 231 236 238 231 235 219 224 220 226 231 248 259 258 256 254 255
244 243 243 242 239 239 241 243 248 250 249 249 256 272 269 265 261 254 247 244 246 247 248 244 242 236 240 227 225 235 238 234 226 213 227 218 218 227 244 255 265 270 265 267
250 259 242 242 251 242 250 250 253 255 250 251 248 254 266 263 257 247 246 249 247 242 242 246 244 242 240 233 227 232 234 226 224 221 222 243 224 225 235 254 261 271 267 268
254 256 247 252 258 251 251 249 246 246 248 237 241 236 260 254 260 262 254 252 249 245 243 243 244 240 238 236 229 228 231 233 236 228 237 232 227 237 235 248 259 267 270 269
262 258 258 256 255 240 237 236 238 228 200 243 246 231 241 258 267 273 261 251 247 247 241 243 241 243 243 237 233 231 229 235 237 231 229 234 227 227 239 254 253 263 269 268
261 267 259 254 247 254 248 233 219 258 212 235 240 219 246 268 268 267 262 249 243 237 240 243 245 244 243 241 237 233 228 227 233 232 241 242 226 230 235 242 251 258 266 266
252 251 259 247 251 241 240 221 247 242 251 270 229 252 258 261 264 267 261 258 253 246 248 245 242 241 238 239 238 236 232 228 230 235 237 243 231 231 227 237 251 255 263 259
265 260 253 245 254 238 246 255 234 218 242 245 199 228 249 266 268 275 261 258 249 246 246 244 245 245 240 237 237 235 233 229 234 229 234 241 246 237 239 236 239 259 259 253
282 282 278 263 270 281 280 258 256 252 251 279 290 219 249 275 251 247 244 245 244 253 252 249 248 248 243 237 236 237 233 228 228 230 234 234 242 243 239 244 251 256 254 247
284 285 285 280 278 275 266 268 268 274 292 304 336 218 208 352 336 257 255 249 251 256 257 252 249 246 238 236 234 233 233 227 225 229 235 233 248 245 242 247 252 248 242 244
303 286 319 322 289 260 241 231 267 295 298 274 259 261 293 318 313 300 266 254 252 253 261 256 249 242 237 238 238 235 231 228 226 230 230 240 237 235 247 245 248 240 237 241
293 280 276 263 269 288 291 287 293 293 274 278 273 289 274 296 306 309 320 281 261 259 254 258 248 244 241 237 235 233 231 225 226 229 233 235 234 237 238 240 235 233 233 238
287 280 282 284 284 282 281 284 288 281 278 262 282 284 291 297 299 287 285 301 300 275 252 257 254 248 239 236 231 228 227 223 225 229 233 234 232 233 233 230 229 227 230 237
281 277 278 276 280 281 283 282 279 281 281 279 282 283 291 290 290 283 271 269 278 291 279 257 257 258 240 232 227 224 222 219 222 227 230 231 231 229 226 224 224 228 233 240
277 271 272 271 279 282 276 275 278 281 280 284 277 286 283 276 273 271 265 256 256 265 279 272 238 240 225 223 225 220 221 219 220 225 227 226 225 224 224 225 227 229 229 226
266 267 267 275 281 260 269 272 271 269 272 274 279 281 279 278 273 266 265 259 256 253 256 265 243 231 228 222 215 217 216 217 217 219 222 222 223 223 222 220 219 218 219 222
262 261 250 251 247 272 272 271 271 273 273 273 277 279 279 277 280 272 269 264 256 257 260 252 238 227 225 216 214 212 212 211 214 215 216 217 217 216 215 213 213 216 219 226
282 294 237 232 243 231 300 288 284 282 285 282 276 281 281 271 278 280 274 268 264 261 258 253 245 222 222 214 213 212 208 205 208 212 211 211 210 209 210 211 214 226 230 233
281 292 276 270 260 273 277 297 290 261 284 267 278 299 305 300 296 291 275 263 263 262 254 246 231 225 220 213 210 210 209 204 201 208 206 205 204 208 215 213 214 218 223 232
296 292 283 291 251 248 346 335 333 315 310 304 299 293 295 298 307 304 300 292 259 261 248 234 224 221 216 217 213 211 205 203 200 202 207 206 205 199 202 207 210 220 230 235
275 272 275 270 260 275 295 300 288 309 304 290 288 288 292 294 288 296 293 291 273 254 252 217 214 213 212 213 215 211 204 196 195 195 198 191 190 191 196 205 215 222 223 224
293 295 287 289 287 290 289 283 278 285 291 293 291 287 286 293 288 287 281 274 274 249 230 207 204 206 211 209 205 207 193 186 182 181 182 182 184 192 197 203 204 204 216 244
295 294 295 297 302 299 295 297 279 264 270 280 286 288 286 285 282 277 277 264 249 230 210 199 199 200 201 198 188 180 175 177 174 174 176 180 184 190 195 189 189 219 237 254
312 303 298 297 297 289 287 287 283 277 273 275 279 281 286 283 274 271 264 245 224 204 196 192 189 186 185 178 171 168 168 169 170 173 174 182 185 176 176 197 211 226 241 249